Weather History for Green Bay, WI

Change the Weather History Date:

Wednesday, June 11, 2014

  Actual Average Record
Temperature  
Mean Temperature 64 °F 64 °F  
Max Temperature 69 °F 74 °F 91 °F (1949)
Min Temperature 59 °F 53 °F 36 °F (1903)
Degree Days  
Heating Degree Days 1 4  
Month to date heating degree days 12 52  
Since 1 June heating degree days 12 52  
Since 1 July heating degree days 8752 7915  
Cooling Degree Days 0 2  
Month to date cooling degree days 30 17  
Year to date cooling degree days 46 35  
Since 1 June cooling degree days 30 17  
Growing Degree Days 14 (Base 50)    
Moisture  
Dew Point 55 °F    
Average Humidity 76    
Maximum Humidity 93    
Minimum Humidity 58    
Precipitation  
Precipitation 0.01 in 0.14 in 2.08 in (1942)
Month to date precipitation 1.43 1.44  
Year to date precipitation 12.09 11.09  
Snow  
Snow 0.00 in 0.00 in 0.00 in ()
Month to date snowfall 0.0 0.0  
Since 1 June snowfall 0.0 0.0  
Since 1 July snowfall 72.1 51.4  
Snow Depth 0.00 in    
Sea Level Pressure  
Sea Level Pressure 29.82 in    
Wind  
Wind Speed 9 mph (NNE)    
Max Wind Speed 18 mph    
Max Gust Speed 22 mph    
Visibility 10 miles    
Events Rain    
T = Trace of Precipitation, MM = Missing Value Source: NWS Daily Summary

Daily Weather History Graph

Daily Weather History Graph

Search for Another Location

Airport:

Trip Planner

Search our weather history database for the weather conditions in past years. The results will help you decide how hot, cold, wet, or windy it might be!

Date:

Astronomy

Jun. 11, 2014 Rise Set
Actual Time 5:07 AM CDT 8:37 PM CDT
Civil Twilight 4:30 AM CDT 9:13 PM CDT
Nautical Twilight 3:42 AM CDT 10:02 PM CDT
Astronomical Twilight 2:41 AM CDT 11:04 PM CDT
Moon 7:02 PM CDT (6/11) 4:01 AM CDT (6/11)
Length of Visible Light 16h 42m
Length of Day
15h 29m
Waxing Gibbous, 97% of the Moon is Illuminated
Jun 11
Waxing Gibbous
Jun 12
Full
Jun 19
Last Quarter
Jun 27
New
Jul 5
First Quarter

Hourly Weather History & Observations

Time (CDT) Temp. Dew Point Humidity Pressure Visibility Wind Dir Wind Speed Gust Speed Precip Events Conditions
12:53 AM 61.0 °F 53.1 °F 75% 29.88 in 10.0 mi NE 6.9 mph - N/A   Clear
1:53 AM 60.8 °F 53.6 °F 77% 29.86 in 10.0 mi NNE 6.9 mph - N/A   Overcast
2:53 AM 60.1 °F 54.0 °F 80% 29.86 in 10.0 mi North 3.5 mph - N/A   Clear
3:53 AM 59.0 °F 53.1 °F 81% 29.85 in 10.0 mi NNE 6.9 mph - N/A   Overcast
4:53 AM 60.1 °F 54.0 °F 80% 29.85 in 10.0 mi NE 4.6 mph - N/A   Overcast
5:53 AM 60.1 °F 55.0 °F 83% 29.85 in 10.0 mi NNW 6.9 mph - 0.00 in   Overcast
6:53 AM 59.0 °F 53.1 °F 81% 29.86 in 10.0 mi North 8.1 mph - N/A   Overcast
7:53 AM 60.1 °F 52.0 °F 75% 29.85 in 10.0 mi NE 9.2 mph - N/A   Overcast
8:53 AM 63.0 °F 55.0 °F 75% 29.84 in 10.0 mi North 11.5 mph - N/A   Overcast
9:53 AM 64.9 °F 54.0 °F 68% 29.84 in 10.0 mi NNE 13.8 mph - N/A   Overcast
10:53 AM 68.0 °F 53.1 °F 59% 29.81 in 10.0 mi NE 13.8 mph - N/A   Overcast
11:53 AM 66.9 °F 51.1 °F 57% 29.81 in 10.0 mi NE 10.4 mph - N/A   Mostly Cloudy
12:53 PM 66.0 °F 57.0 °F 73% 29.80 in 10.0 mi NE 9.2 mph - 0.00 in   Overcast
1:53 PM 66.0 °F 57.9 °F 75% 29.80 in 9.0 mi NNE 8.1 mph - 0.01 in Rain Light Rain
2:53 PM 64.9 °F 55.0 °F 70% 29.80 in 10.0 mi NNE 10.4 mph - 0.00 in Rain Light Rain
3:53 PM 63.0 °F 57.0 °F 81% 29.80 in 10.0 mi NNE 9.2 mph - 0.00 in Rain Light Rain
4:53 PM 63.0 °F 57.0 °F 81% 29.79 in 10.0 mi NE 11.5 mph - 0.00 in   Mostly Cloudy
5:53 PM 64.0 °F 57.9 °F 80% 29.78 in 10.0 mi NE 11.5 mph - N/A   Overcast
6:53 PM 66.9 °F 57.9 °F 73% 29.78 in 10.0 mi NE 13.8 mph - N/A   Mostly Cloudy
7:53 PM 64.0 °F 57.0 °F 78% 29.78 in 10.0 mi NE 11.5 mph - N/A   Scattered Clouds
8:53 PM 60.1 °F 57.0 °F 90% 29.77 in 10.0 mi NE 9.2 mph - N/A   Clear
9:53 PM 59.0 °F 57.0 °F 93% 29.77 in 10.0 mi NNE 5.8 mph - N/A   Partly Cloudy
10:08 PM 60.1 °F 57.0 °F 90% 29.77 in 10.0 mi NNE 5.8 mph - N/A   Mostly Cloudy
10:53 PM 61.0 °F 57.9 °F 90% 29.78 in 10.0 mi ENE 8.1 mph - N/A   Overcast
11:53 PM 60.1 °F 57.9 °F 93% 29.78 in 10.0 mi NNE 9.2 mph - N/A   Overcast